Time,TemperatureF,DewpointF,PressureIn,WindDirection,WindDirectionDegrees,WindSpeedMPH,WindSpeedGustMPH,Humidity,HourlyPrecipIn,Conditions,Clouds,dailyrainin,SoftwareType,DateUTC
2013-06-29 00:01:00,70.4,68.0,29.51,SW,216,0.0,0.0,92,0.00,RA,,0.00,WeatherDisplay:10.37,2013-06-29 04:01:00,
2013-06-29 00:02:00,70.5,68.1,29.51,SW,216,0.0,0.0,92,0.00,RA,,0.00,WeatherDisplay:10.37,2013-06-29 04:02:00,
2013-06-29 00:04:00,70.1,67.7,29.51,SW,216,0.0,0.0,92,0.00,RA,,0.00,WeatherDisplay:10.37,2013-06-29 04:04:00,
2013-06-29 00:05:00,70.4,68.0,29.51,SW,216,0.0,0.0,92,0.00,RA,,0.00,WeatherDisplay:10.37,2013-06-29 04:05:00,
2013-06-29 00:07:00,70.3,67.9,29.51,SW,216,0.0,0.0,92,0.00,RA,,0.00,WeatherDisplay:10.37,2013-06-29 04:07:00,
2013-06-29 00:12:00,69.9,67.2,29.51,SW,216,0.0,0.0,91,0.00,OVC,,0.00,WeatherDisplay:10.37,2013-06-29 04:12:00,
2013-06-29 00:17:00,70.0,67.3,29.51,SW,216,0.0,0.0,91,0.00,OVC,,0.00,WeatherDisplay:10.37,2013-06-29 04:17:00,
2013-06-29 00:22:00,69.9,67.5,29.51,SW,216,0.0,0.0,92,0.00,OVC,,0.00,WeatherDisplay:10.37,2013-06-29 04:22:00,
2013-06-29 00:27:00,69.6,67.2,29.51,SW,216,0.0,0.0,92,0.00,OVC,,0.00,WeatherDisplay:10.37,2013-06-29 04:27:00,
2013-06-29 00:32:00,69.7,67.3,29.51,SW,216,0.0,0.0,92,0.00,OVC,,0.00,WeatherDisplay:10.37,2013-06-29 04:32:00,
2013-06-29 00:38:00,69.5,67.1,29.50,SW,216,0.0,0.0,92,0.00,OVC,,0.00,WeatherDisplay:10.37,2013-06-29 04:38:00,
2013-06-29 00:43:00,69.3,66.9,29.50,SW,216,0.0,0.0,92,0.00,OVC,,0.00,WeatherDisplay:10.37,2013-06-29 04:43:00,
2013-06-29 00:48:00,69.3,66.9,29.50,SW,216,0.0,0.0,92,0.00,OVC,,0.00,WeatherDisplay:10.37,2013-06-29 04:48:00,
2013-06-29 00:53:00,69.1,66.7,29.50,SW,216,0.0,0.0,92,0.00,OVC,,0.00,WeatherDisplay:10.37,2013-06-29 04:53:00,
2013-06-29 00:58:00,69.0,66.6,29.50,SW,216,0.0,0.0,92,0.00,OVC,,0.00,WeatherDisplay:10.37,2013-06-29 04:58:00,
2013-06-29 01:03:00,68.9,66.5,29.50,SW,216,0.0,0.0,92,0.00,OVC,,0.00,WeatherDisplay:10.37,2013-06-29 05:03:00,
2013-06-29 01:08:00,68.9,66.5,29.50,SW,216,0.0,0.0,92,0.00,OVC,,0.00,WeatherDisplay:10.37,2013-06-29 05:08:00,
2013-06-29 01:13:00,68.7,66.6,29.50,SW,216,0.0,0.0,93,0.00,OVC,,0.00,WeatherDisplay:10.37,2013-06-29 05:13:00,
2013-06-29 01:18:00,68.8,66.7,29.50,SW,216,0.0,0.0,93,0.00,OVC,,0.00,WeatherDisplay:10.37,2013-06-29 05:18:00,
2013-06-29 01:23:00,68.6,66.5,29.50,SW,216,0.0,0.0,93,0.00,OVC,,0.00,WeatherDisplay:10.37,2013-06-29 05:23:00,
2013-06-29 01:28:00,68.5,66.4,29.50,SW,216,0.0,0.0,93,0.00,OVC,,0.00,WeatherDisplay:10.37,2013-06-29 05:28:00,
2013-06-29 01:33:00,68.6,66.5,29.50,SW,216,0.0,0.0,93,0.00,OVC,,0.00,WeatherDisplay:10.37,2013-06-29 05:33:00,
2013-06-29 01:38:00,68.7,66.9,29.50,SW,216,0.0,0.0,94,0.00,OVC,,0.00,WeatherDisplay:10.37,2013-06-29 05:38:00,
2013-06-29 01:43:00,68.7,66.9,29.50,SW,216,0.0,0.0,94,0.00,OVC,,0.00,WeatherDisplay:10.37,2013-06-29 05:43:00,
2013-06-29 01:48:00,68.8,67.0,29.51,West,270,2.3,2.3,94,0.00,OVC,,0.00,WeatherDisplay:10.37,2013-06-29 05:48:00,
2013-06-29 01:53:00,68.9,67.1,29.51,West,267,2.3,2.3,94,0.00,OVC,,0.00,WeatherDisplay:10.37,2013-06-29 05:53:00,
2013-06-29 01:58:00,68.9,67.1,29.51,WNW,287,1.2,0.0,94,0.00,OVC,,0.00,WeatherDisplay:10.37,2013-06-29 05:58:00,
2013-06-29 02:03:00,69.1,67.3,29.50,WNW,287,0.0,0.0,94,0.00,OVC,,0.00,WeatherDisplay:10.37,2013-06-29 06:03:00,
2013-06-29 02:08:00,69.0,67.2,29.51,WNW,287,0.0,0.0,94,0.00,OVC,,0.00,WeatherDisplay:10.37,2013-06-29 06:08:00,
2013-06-29 02:13:00,68.9,67.1,29.51,WNW,287,0.0,0.0,94,0.00,OVC,,0.00,WeatherDisplay:10.37,2013-06-29 06:13:00,
2013-06-29 02:18:00,68.9,67.1,29.50,WNW,287,0.0,0.0,94,0.00,OVC,,0.00,WeatherDisplay:10.37,2013-06-29 06:18:00,
2013-06-29 02:23:00,68.9,67.1,29.50,WNW,287,0.0,0.0,94,0.00,OVC,,0.00,WeatherDisplay:10.37,2013-06-29 06:23:00,
2013-06-29 02:28:00,68.6,66.8,29.50,WNW,287,0.0,0.0,94,0.00,OVC,,0.00,WeatherDisplay:10.37,2013-06-29 06:28:00,
2013-06-29 02:33:00,68.4,66.6,29.50,WNW,287,0.0,0.0,94,0.00,OVC,,0.00,WeatherDisplay:10.37,2013-06-29 06:33:00,
2013-06-29 02:38:00,68.4,66.6,29.50,WNW,287,0.0,0.0,94,0.00,OVC,,0.00,WeatherDisplay:10.37,2013-06-29 06:38:00,
2013-06-29 02:43:00,68.2,66.4,29.50,WNW,287,0.0,0.0,94,0.00,OVC,,0.00,WeatherDisplay:10.37,2013-06-29 06:43:00,
2013-06-29 02:48:00,68.3,66.5,29.50,WNW,287,0.0,0.0,94,0.00,OVC,,0.00,WeatherDisplay:10.37,2013-06-29 06:48:00,
2013-06-29 02:53:00,68.1,66.3,29.50,WNW,287,0.0,0.0,94,0.00,OVC,,0.00,WeatherDisplay:10.37,2013-06-29 06:53:00,
2013-06-29 02:58:00,68.0,66.2,29.50,WNW,287,0.0,0.0,94,0.00,OVC,,0.00,WeatherDisplay:10.37,2013-06-29 06:58:00,
2013-06-29 03:03:00,68.1,66.3,29.50,WNW,287,0.0,0.0,94,0.00,OVC,,0.00,WeatherDisplay:10.37,2013-06-29 07:03:00,
2013-06-29 03:08:00,67.8,66.0,29.50,WSW,237,1.2,1.2,94,0.00,OVC,,0.00,WeatherDisplay:10.37,2013-06-29 07:08:00,
2013-06-29 03:13:00,67.9,66.1,29.50,SSE,158,2.3,0.0,94,0.00,OVC,,0.00,WeatherDisplay:10.37,2013-06-29 07:13:00,
2013-06-29 03:18:00,68.2,66.4,29.50,West,268,1.2,1.2,94,0.00,OVC,,0.00,WeatherDisplay:10.37,2013-06-29 07:18:00,
2013-06-29 03:23:00,67.9,66.1,29.50,West,268,0.0,0.0,94,0.00,OVC,,0.00,WeatherDisplay:10.37,2013-06-29 07:23:00,
2013-06-29 03:28:00,68.0,66.2,29.50,West,268,0.0,0.0,94,0.00,OVC,,0.00,WeatherDisplay:10.37,2013-06-29 07:28:00,
2013-06-29 03:33:00,67.8,66.0,29.50,West,268,0.0,0.0,94,0.00,OVC,,0.00,WeatherDisplay:10.37,2013-06-29 07:33:00,
2013-06-29 03:38:00,67.9,66.1,29.50,West,268,0.0,0.0,94,0.00,OVC,,0.00,WeatherDisplay:10.37,2013-06-29 07:38:00,
2013-06-29 03:43:00,68.0,66.2,29.50,West,268,0.0,0.0,94,0.00,OVC,,0.00,WeatherDisplay:10.37,2013-06-29 07:43:00,
2013-06-29 03:48:00,67.9,66.1,29.50,West,268,0.0,0.0,94,0.00,OVC,,0.00,WeatherDisplay:10.37,2013-06-29 07:48:00,
2013-06-29 03:53:00,68.2,66.8,29.50,West,268,0.0,0.0,95,0.00,OVC,,0.00,WeatherDisplay:10.37,2013-06-29 07:53:00,
2013-06-29 03:58:00,68.2,66.4,29.50,West,268,0.0,0.0,94,0.00,OVC,,0.00,WeatherDisplay:10.37,2013-06-29 07:58:00,
2013-06-29 04:03:00,67.9,66.1,29.50,West,268,0.0,0.0,94,0.00,OVC,,0.00,WeatherDisplay:10.37,2013-06-29 08:03:00,
2013-06-29 04:08:00,67.8,66.0,29.50,West,268,0.0,0.0,94,0.00,OVC,,0.00,WeatherDisplay:10.37,2013-06-29 08:08:00,
2013-06-29 04:13:00,67.7,66.0,29.50,West,268,0.0,0.0,94,0.00,OVC,,0.00,WeatherDisplay:10.37,2013-06-29 08:13:00,
2013-06-29 04:18:00,67.8,66.0,29.50,West,268,0.0,0.0,94,0.00,OVC,,0.00,WeatherDisplay:10.37,2013-06-29 08:18:00,
2013-06-29 04:23:00,67.7,66.0,29.50,West,268,0.0,0.0,94,0.00,OVC,,0.00,WeatherDisplay:10.37,2013-06-29 08:23:00,
2013-06-29 04:28:00,67.6,65.9,29.51,West,268,0.0,0.0,94,0.00,OVC,,0.00,WeatherDisplay:10.37,2013-06-29 08:28:00,
2013-06-29 04:33:00,67.5,65.8,29.51,West,268,0.0,0.0,94,0.00,OVC,,0.00,WeatherDisplay:10.37,2013-06-29 08:33:00,
2013-06-29 04:38:00,67.4,65.7,29.51,West,268,0.0,0.0,94,0.00,OVC,,0.00,WeatherDisplay:10.37,2013-06-29 08:38:00,
2013-06-29 04:43:00,67.0,65.3,29.51,SSE,165,1.4,1.4,94,0.00,OVC,,0.00,WeatherDisplay:10.37,2013-06-29 08:43:00,
2013-06-29 04:48:00,67.1,65.7,29.52,WSW,253,0.0,0.0,95,0.00,OVC,,0.00,WeatherDisplay:10.37,2013-06-29 08:48:00,
2013-06-29 04:53:00,66.9,65.5,29.52,WSW,253,0.0,0.0,95,0.00,OVC,,0.00,WeatherDisplay:10.37,2013-06-29 08:53:00,
2013-06-29 04:58:00,66.8,65.4,29.53,WSW,253,0.0,0.0,95,0.00,OVC,,0.00,WeatherDisplay:10.37,2013-06-29 08:58:00,
2013-06-29 05:03:00,66.9,65.5,29.53,WSW,253,0.0,0.0,95,0.00,OVC,,0.00,WeatherDisplay:10.37,2013-06-29 09:03:00,
2013-06-29 05:08:00,67.2,65.8,29.53,WSW,253,0.0,0.0,95,0.00,OVC,,0.00,WeatherDisplay:10.37,2013-06-29 09:08:00,
2013-06-29 05:13:00,67.5,66.1,29.53,WSW,253,0.0,0.0,95,0.00,OVC,,0.00,WeatherDisplay:10.37,2013-06-29 09:13:00,
2013-06-29 05:18:00,67.7,66.3,29.53,WSW,253,0.0,0.0,95,0.00,OVC,,0.00,WeatherDisplay:10.37,2013-06-29 09:18:00,
2013-06-29 05:23:00,68.0,66.6,29.53,WSW,253,0.0,0.0,95,0.00,OVC,,0.00,WeatherDisplay:10.37,2013-06-29 09:23:00,
2013-06-29 05:28:00,68.0,66.6,29.53,WSW,253,0.0,0.0,95,0.00,OVC,,0.00,WeatherDisplay:10.37,2013-06-29 09:28:00,
2013-06-29 05:33:00,68.2,66.8,29.53,WSW,253,0.0,0.0,95,0.00,OVC,,0.00,WeatherDisplay:10.37,2013-06-29 09:33:00,
2013-06-29 05:38:00,68.4,67.0,29.53,WSW,253,0.0,0.0,95,0.00,OVC,,0.00,WeatherDisplay:10.37,2013-06-29 09:38:00,
2013-06-29 05:43:00,68.3,66.9,29.54,WSW,253,0.0,0.0,95,0.00,OVC,,0.00,WeatherDisplay:10.37,2013-06-29 09:43:00,
2013-06-29 05:48:00,68.3,66.9,29.54,WSW,253,0.0,0.0,95,0.00,OVC,,0.00,WeatherDisplay:10.37,2013-06-29 09:48:00,
2013-06-29 05:53:00,68.4,67.0,29.54,WSW,253,0.0,0.0,95,0.00,OVC,,0.00,WeatherDisplay:10.37,2013-06-29 09:53:00,
2013-06-29 05:58:00,68.2,66.8,29.54,WSW,253,0.0,0.0,95,0.00,OVC,,0.00,WeatherDisplay:10.37,2013-06-29 09:58:00,
2013-06-29 06:03:00,68.2,66.8,29.54,WSW,253,0.0,0.0,95,0.00,OVC,,0.00,WeatherDisplay:10.37,2013-06-29 10:03:00,
2013-06-29 06:08:00,68.2,66.8,29.55,WSW,253,0.0,0.0,95,0.00,OVC,,0.00,WeatherDisplay:10.37,2013-06-29 10:08:00,
2013-06-29 06:13:00,68.2,66.8,29.54,WSW,253,0.0,0.0,95,0.00,OVC,,0.00,WeatherDisplay:10.37,2013-06-29 10:13:00,
2013-06-29 06:18:00,67.9,66.5,29.54,WSW,253,0.0,0.0,95,0.00,OVC,,0.00,WeatherDisplay:10.37,2013-06-29 10:18:00,
2013-06-29 06:23:00,68.2,66.8,29.55,WSW,253,0.0,0.0,95,0.00,OVC,,0.00,WeatherDisplay:10.37,2013-06-29 10:23:00,
2013-06-29 06:28:00,68.2,66.8,29.55,WSW,253,0.0,0.0,95,0.00,OVC,,0.00,WeatherDisplay:10.37,2013-06-29 10:28:00,
2013-06-29 06:33:00,68.3,66.9,29.55,WSW,253,0.0,0.0,95,0.00,OVC,,0.00,WeatherDisplay:10.37,2013-06-29 10:33:00,
2013-06-29 06:38:00,68.3,66.9,29.55,WSW,253,0.0,0.0,95,0.00,OVC,,0.00,WeatherDisplay:10.37,2013-06-29 10:38:00,
2013-06-29 06:43:00,68.3,66.9,29.55,WSW,253,0.0,0.0,95,0.00,OVC,,0.00,WeatherDisplay:10.37,2013-06-29 10:43:00,
2013-06-29 06:48:00,67.8,66.4,29.55,WSW,253,0.0,0.0,95,0.00,OVC,,0.00,WeatherDisplay:10.37,2013-06-29 10:48:00,
2013-06-29 06:53:00,68.2,66.8,29.55,South,191,0.0,0.0,95,0.00,OVC,,0.00,WeatherDisplay:10.37,2013-06-29 10:53:00,
2013-06-29 06:58:00,68.3,66.9,29.56,West,263,3.5,3.5,95,0.00,OVC,,0.00,WeatherDisplay:10.37,2013-06-29 10:58:00,
2013-06-29 07:03:00,68.6,67.2,29.55,SSW,206,1.2,0.0,95,0.00,OVC,,0.00,WeatherDisplay:10.37,2013-06-29 11:03:00,
2013-06-29 07:08:00,68.8,67.3,29.55,SSW,208,3.5,3.5,95,0.00,OVC,,0.00,WeatherDisplay:10.37,2013-06-29 11:08:00,
2013-06-29 07:13:00,68.8,67.3,29.55,SW,215,2.3,2.3,95,0.00,OVC,,0.00,WeatherDisplay:10.37,2013-06-29 11:13:00,
2013-06-29 07:18:00,68.9,67.4,29.55,NW,319,0.0,0.0,95,0.00,OVC,,0.00,WeatherDisplay:10.37,2013-06-29 11:18:00,
2013-06-29 07:23:00,68.9,67.4,29.55,NW,309,2.3,2.3,95,0.00,OVC,,0.00,WeatherDisplay:10.37,2013-06-29 11:23:00,
2013-06-29 07:28:00,69.3,67.8,29.55,SSW,193,2.3,2.3,95,0.00,OVC,,0.00,WeatherDisplay:10.37,2013-06-29 11:28:00,
2013-06-29 07:33:00,69.3,67.5,29.55,SSW,193,0.0,0.0,94,0.00,OVC,,0.00,WeatherDisplay:10.37,2013-06-29 11:33:00,
2013-06-29 07:38:00,69.7,67.9,29.55,NW,322,3.5,3.5,94,0.00,OVC,,0.00,WeatherDisplay:10.37,2013-06-29 11:38:00,
2013-06-29 07:43:00,69.8,68.0,29.55,WSW,247,3.5,3.5,94,0.00,OVC,,0.00,WeatherDisplay:10.37,2013-06-29 11:43:00,
2013-06-29 07:48:00,70.0,68.2,29.55,WSW,257,3.5,3.5,94,0.00,OVC,,0.00,WeatherDisplay:10.37,2013-06-29 11:48:00,
2013-06-29 07:53:00,70.0,67.9,29.55,WNW,284,3.5,3.5,93,0.00,OVC,,0.00,WeatherDisplay:10.37,2013-06-29 11:53:00,
2013-06-29 07:58:00,70.3,67.9,29.55,WSW,239,5.8,5.8,92,0.00,OVC,,0.00,WeatherDisplay:10.37,2013-06-29 11:58:00,
2013-06-29 08:03:00,70.4,67.4,29.55,WSW,240,5.8,5.8,90,0.00,OVC,,0.00,WeatherDisplay:10.37,2013-06-29 12:03:00,
2013-06-29 08:08:00,70.4,67.7,29.55,SW,226,4.6,4.6,91,0.00,OVC,,0.00,WeatherDisplay:10.37,2013-06-29 12:08:00,
2013-06-29 08:13:00,70.9,67.9,29.55,SSE,147,5.8,5.8,90,0.00,OVC,,0.00,WeatherDisplay:10.37,2013-06-29 12:13:00,
2013-06-29 08:18:00,71.0,67.3,29.56,SSW,193,6.9,6.9,88,0.00,OVC,,0.00,WeatherDisplay:10.37,2013-06-29 12:18:00,
2013-06-29 08:23:00,70.8,67.1,29.56,WSW,258,3.5,3.5,88,0.00,OVC,,0.00,WeatherDisplay:10.37,2013-06-29 12:23:00,
2013-06-29 08:28:00,71.2,67.5,29.56,WSW,250,6.9,6.9,88,0.00,OVC,,0.00,WeatherDisplay:10.37,2013-06-29 12:28:00,
2013-06-29 08:33:00,71.4,67.4,29.56,SW,224,6.9,6.9,87,0.00,OVC,,0.00,WeatherDisplay:10.37,2013-06-29 12:33:00,
2013-06-29 08:38:00,71.6,67.2,29.56,WSW,247,6.9,6.9,86,0.00,OVC,,0.00,WeatherDisplay:10.37,2013-06-29 12:38:00,
2013-06-29 08:43:00,71.9,67.9,29.56,WNW,299,4.6,4.6,87,0.00,OVC,,0.00,WeatherDisplay:10.37,2013-06-29 12:43:00,
2013-06-29 08:48:00,72.4,68.7,29.56,SSW,205,4.6,4.6,88,0.00,OVC,,0.00,WeatherDisplay:10.37,2013-06-29 12:48:00,
2013-06-29 08:53:00,72.2,67.8,29.56,SW,233,8.1,8.1,86,0.00,OVC,,0.00,WeatherDisplay:10.37,2013-06-29 12:53:00,
2013-06-29 08:58:00,71.9,67.2,29.56,WSW,258,6.9,6.9,85,0.00,OVC,,0.00,WeatherDisplay:10.37,2013-06-29 12:58:00,
2013-06-29 09:03:00,72.1,67.7,29.56,WNW,294,4.6,4.6,86,0.00,OVC,,0.00,WeatherDisplay:10.37,2013-06-29 13:03:00,
2013-06-29 09:08:00,72.2,67.8,29.57,NW,316,3.5,3.5,86,0.00,OVC,,0.00,WeatherDisplay:10.37,2013-06-29 13:08:00,
2013-06-29 09:13:00,72.3,67.9,29.57,WSW,254,2.3,2.3,86,0.00,OVC,,0.00,WeatherDisplay:10.37,2013-06-29 13:13:00,
2013-06-29 09:18:00,72.5,67.8,29.57,SSW,198,3.5,3.5,85,0.00,OVC,,0.00,WeatherDisplay:10.37,2013-06-29 13:18:00,
2013-06-29 09:23:00,72.6,67.5,29.57,South,181,3.6,3.6,84,0.00,OVC,,0.00,WeatherDisplay:10.37,2013-06-29 13:23:00,
2013-06-29 09:28:00,73.1,68.0,29.57,SW,219,2.3,2.3,84,0.00,OVC,,0.00,WeatherDisplay:10.37,2013-06-29 13:28:00,
2013-06-29 09:33:00,73.5,68.4,29.57,West,281,4.6,4.6,84,0.00,OVC,,0.00,WeatherDisplay:10.37,2013-06-29 13:33:00,
2013-06-29 09:38:00,74.0,68.2,29.57,WSW,244,2.4,2.4,82,0.00,OVC,,0.00,WeatherDisplay:10.37,2013-06-29 13:38:00,
2013-06-29 09:43:00,74.5,68.0,29.57,SW,233,2.3,2.3,80,0.00,OVC,,0.00,WeatherDisplay:10.37,2013-06-29 13:43:00,
2013-06-29 09:48:00,74.9,68.0,29.56,SE,124,3.5,3.5,79,0.00,OVC,,0.00,WeatherDisplay:10.37,2013-06-29 13:48:00,
2013-06-29 09:53:00,75.5,68.2,29.57,SSW,205,4.6,4.6,78,0.00,OVC,,0.00,WeatherDisplay:10.37,2013-06-29 13:53:00,
2013-06-29 09:58:00,75.7,67.2,29.56,SW,215,5.8,5.8,75,0.00,OVC,,0.00,WeatherDisplay:10.37,2013-06-29 13:58:00,
2013-06-29 10:03:00,75.6,66.8,29.56,ESE,114,3.5,3.5,74,0.00,OVC,,0.00,WeatherDisplay:10.37,2013-06-29 14:03:00,
2013-06-29 10:08:00,76.1,67.6,29.57,WSW,241,2.3,2.3,75,0.00,OVC,,0.00,WeatherDisplay:10.37,2013-06-29 14:08:00,
2013-06-29 10:13:00,75.8,67.3,29.57,West,261,3.5,4.2,75,0.00,OVC,,0.00,WeatherDisplay:10.37,2013-06-29 14:13:00,
2013-06-29 10:18:00,76.2,67.7,29.57,SW,232,5.8,5.8,75,0.00,BKN,,0.00,WeatherDisplay:10.37,2013-06-29 14:18:00,
2013-06-29 10:23:00,76.4,67.1,29.57,WNW,285,4.6,4.6,73,0.00,BKN,,0.00,WeatherDisplay:10.37,2013-06-29 14:23:00,
2013-06-29 10:28:00,76.7,67.0,29.57,SW,223,6.9,6.9,72,0.00,BKN,,0.00,WeatherDisplay:10.37,2013-06-29 14:28:00,
2013-06-29 10:33:00,76.2,66.1,29.56,SE,141,5.8,5.8,71,0.00,BKN,,0.00,WeatherDisplay:10.37,2013-06-29 14:33:00,
2013-06-29 10:38:00,76.3,67.0,29.56,WSW,239,8.1,8.1,73,0.00,BKN,,0.00,WeatherDisplay:10.37,2013-06-29 14:38:00,
2013-06-29 10:43:00,76.5,67.6,29.57,SW,233,5.8,5.8,74,0.00,BKN,,0.00,WeatherDisplay:10.37,2013-06-29 14:43:00,
2013-06-29 10:48:00,76.9,67.6,29.57,SSW,205,4.7,4.7,73,0.00,BKN,,0.00,WeatherDisplay:10.37,2013-06-29 14:48:00,
2013-06-29 10:53:00,77.4,66.5,29.56,West,278,8.1,8.1,69,0.00,BKN,,0.00,WeatherDisplay:10.37,2013-06-29 14:53:00,
2013-06-29 10:58:00,77.6,66.2,29.56,West,267,6.9,6.9,68,0.00,BKN,,0.00,WeatherDisplay:10.37,2013-06-29 14:58:00,
2013-06-29 11:03:00,77.6,66.7,29.57,West,261,6.9,6.9,69,0.00,BKN,,0.00,WeatherDisplay:10.37,2013-06-29 15:03:00,
2013-06-29 11:08:00,78.0,66.6,29.57,South,169,4.6,4.6,68,0.00,BKN,,0.00,WeatherDisplay:10.37,2013-06-29 15:08:00,
2013-06-29 11:13:00,78.4,66.6,29.57,SSW,209,9.2,9.2,67,0.00,BKN,,0.00,WeatherDisplay:10.37,2013-06-29 15:13:00,
2013-06-29 11:18:00,78.3,65.2,29.57,WSW,239,5.8,5.8,64,0.00,BKN,,0.00,WeatherDisplay:10.37,2013-06-29 15:18:00,
2013-06-29 11:23:00,78.6,66.3,29.57,WSW,251,6.9,6.9,66,0.00,BKN,,0.00,WeatherDisplay:10.37,2013-06-29 15:23:00,
2013-06-29 11:28:00,78.5,66.2,29.57,SSE,162,5.8,5.8,66,0.00,BKN,,0.00,WeatherDisplay:10.37,2013-06-29 15:28:00,
2013-06-29 11:33:00,78.2,65.1,29.57,SW,226,9.2,9.2,64,0.00,BKN,,0.00,WeatherDisplay:10.37,2013-06-29 15:33:00,
2013-06-29 11:38:00,78.3,65.6,29.57,SSW,209,8.1,8.1,65,0.00,BKN,,0.00,WeatherDisplay:10.37,2013-06-29 15:38:00,
2013-06-29 11:43:00,78.4,66.6,29.57,WSW,246,8.1,8.1,67,0.00,BKN,,0.00,WeatherDisplay:10.37,2013-06-29 15:43:00,
2013-06-29 11:48:00,78.7,66.4,29.57,SW,219,6.9,6.9,66,0.00,BKN,,0.00,WeatherDisplay:10.37,2013-06-29 15:48:00,
2013-06-29 11:53:00,78.8,67.4,29.57,West,280,2.3,2.3,68,0.00,BKN,,0.00,WeatherDisplay:10.37,2013-06-29 15:53:00,
2013-06-29 11:58:00,79.3,66.1,29.57,WNW,294,6.9,6.9,64,0.00,BKN,,0.00,WeatherDisplay:10.37,2013-06-29 15:58:00,
2013-06-29 12:04:00,78.6,66.8,29.57,SW,227,8.1,8.1,67,0.00,BKN,,0.00,WeatherDisplay:10.37,2013-06-29 16:04:00,
2013-06-29 12:09:00,78.5,67.1,29.57,West,261,8.1,8.1,68,0.00,BKN,,0.00,WeatherDisplay:10.37,2013-06-29 16:09:00,
2013-06-29 12:14:00,78.8,67.0,29.57,WSW,244,6.9,6.9,67,0.00,BKN,,0.00,WeatherDisplay:10.37,2013-06-29 16:14:00,
2013-06-29 12:19:00,79.6,66.8,29.57,SW,229,5.8,5.8,65,0.00,BKN,,0.00,WeatherDisplay:10.37,2013-06-29 16:19:00,
2013-06-29 12:24:00,79.5,66.3,29.57,West,270,5.8,5.8,64,0.00,BKN,,0.00,WeatherDisplay:10.37,2013-06-29 16:24:00,
2013-06-29 12:29:00,78.8,66.5,29.57,East,96,4.6,4.6,66,0.00,BKN,,0.00,WeatherDisplay:10.37,2013-06-29 16:29:00,
2013-06-29 12:34:00,78.3,66.0,29.57,SSW,200,4.6,4.6,66,0.00,BKN,,0.00,WeatherDisplay:10.37,2013-06-29 16:34:00,
2013-06-29 12:39:00,77.9,66.9,29.57,West,260,3.5,3.5,69,0.00,BKN,,0.00,WeatherDisplay:10.37,2013-06-29 16:39:00,
2013-06-29 12:44:00,78.3,66.9,29.57,West,274,5.8,5.8,68,0.00,BKN,,0.00,WeatherDisplay:10.37,2013-06-29 16:44:00,
2013-06-29 12:49:00,79.4,68.0,29.57,WNW,282,10.4,10.4,68,0.00,BKN,,0.00,WeatherDisplay:10.37,2013-06-29 16:49:00,
2013-06-29 12:54:00,80.0,67.2,29.57,SW,233,6.0,6.0,65,0.00,BKN,,0.00,WeatherDisplay:10.37,2013-06-29 16:54:00,
2013-06-29 12:59:00,80.5,66.3,29.57,WSW,241,2.3,2.3,62,0.00,BKN,,0.00,WeatherDisplay:10.37,2013-06-29 16:59:00,
2013-06-29 13:04:00,80.2,65.1,29.57,SW,233,5.8,5.8,60,0.00,BKN,,0.00,WeatherDisplay:10.37,2013-06-29 17:04:00,
2013-06-29 13:09:00,80.2,66.0,29.57,SW,222,8.1,8.1,62,0.00,BKN,,0.00,WeatherDisplay:10.37,2013-06-29 17:09:00,
2013-06-29 13:14:00,80.0,66.8,29.57,SW,216,8.1,8.1,64,0.00,BKN,,0.00,WeatherDisplay:10.37,2013-06-29 17:14:00,
2013-06-29 13:19:00,80.0,66.3,29.57,SW,232,10.4,10.4,63,0.00,BKN,,0.00,WeatherDisplay:10.37,2013-06-29 17:19:00,
2013-06-29 13:24:00,80.2,67.0,29.57,SW,229,11.5,11.5,64,0.00,BKN,,0.00,WeatherDisplay:10.37,2013-06-29 17:24:00,
2013-06-29 13:29:00,80.3,65.2,29.57,WNW,292,10.4,10.4,60,0.00,BKN,,0.00,WeatherDisplay:10.37,2013-06-29 17:29:00,
2013-06-29 13:34:00,80.3,65.2,29.57,South,176,8.1,8.1,60,0.00,SCT,,0.00,WeatherDisplay:10.37,2013-06-29 17:34:00,
2013-06-29 13:39:00,80.2,66.0,29.57,WSW,244,6.9,6.9,62,0.00,SCT,,0.00,WeatherDisplay:10.37,2013-06-29 17:39:00,
2013-06-29 13:44:00,80.4,65.3,29.57,South,181,9.2,9.2,60,0.00,SCT,,0.00,WeatherDisplay:10.37,2013-06-29 17:44:00,
2013-06-29 13:49:00,80.2,66.5,29.57,SW,216,9.2,9.2,63,0.00,SCT,,0.00,WeatherDisplay:10.37,2013-06-29 17:49:00,
2013-06-29 13:54:00,80.5,66.8,29.57,SW,229,9.2,9.2,63,0.00,SCT,,0.00,WeatherDisplay:10.37,2013-06-29 17:54:00,
2013-06-29 13:59:00,80.5,66.8,29.58,SW,223,8.1,8.1,63,0.00,SCT,,0.00,WeatherDisplay:10.37,2013-06-29 17:59:00,
2013-06-29 14:04:00,80.6,66.4,29.57,SW,234,9.2,9.2,62,0.00,FEW,,0.00,WeatherDisplay:10.37,2013-06-29 18:04:00,
2013-06-29 14:09:00,80.7,66.0,29.58,South,191,6.9,6.9,61,0.00,FEW,,0.00,WeatherDisplay:10.37,2013-06-29 18:09:00,
2013-06-29 14:14:00,80.9,66.7,29.58,West,275,6.9,6.9,62,0.00,FEW,,0.00,WeatherDisplay:10.37,2013-06-29 18:14:00,
2013-06-29 14:19:00,81.0,64.9,29.57,SW,232,9.2,9.2,58,0.00,FEW,,0.00,WeatherDisplay:10.37,2013-06-29 18:19:00,
2013-06-29 14:24:00,81.3,67.5,29.57,West,271,5.8,5.8,63,0.00,FEW,,0.00,WeatherDisplay:10.37,2013-06-29 18:24:00,
2013-06-29 14:29:00,81.5,65.8,29.57,SW,227,9.2,9.2,59,0.00,FEW,,0.00,WeatherDisplay:10.37,2013-06-29 18:29:00,
2013-06-29 14:34:00,81.2,65.1,29.58,West,263,11.5,11.5,58,0.00,FEW,,0.00,WeatherDisplay:10.37,2013-06-29 18:34:00,
2013-06-29 14:39:00,81.4,65.2,29.58,NNE,23,3.5,3.5,58,0.00,FEW,,0.00,WeatherDisplay:10.37,2013-06-29 18:39:00,
2013-06-29 14:44:00,81.9,66.7,29.57,WNW,292,5.8,5.8,60,0.00,FEW,,0.00,WeatherDisplay:10.37,2013-06-29 18:44:00,
2013-06-29 14:49:00,81.7,65.5,29.58,WNW,284,10.4,10.4,58,0.00,FEW,,0.00,WeatherDisplay:10.37,2013-06-29 18:49:00,
2013-06-29 14:54:00,81.3,63.1,29.58,SE,140,6.9,6.9,54,0.00,FEW,,0.00,WeatherDisplay:10.37,2013-06-29 18:54:00,
2013-06-29 14:59:00,81.6,65.4,29.58,South,174,6.9,6.9,58,0.00,FEW,,0.00,WeatherDisplay:10.37,2013-06-29 18:59:00,
2013-06-29 15:04:00,81.3,65.6,29.58,WNW,292,4.6,4.6,59,0.00,FEW,,0.00,WeatherDisplay:10.37,2013-06-29 19:04:00,
2013-06-29 15:09:00,81.3,65.6,29.58,SSW,193,10.4,10.4,59,0.00,FEW,,0.00,WeatherDisplay:10.37,2013-06-29 19:09:00,
2013-06-29 15:14:00,81.5,65.8,29.58,SW,233,9.2,9.2,59,0.00,FEW,,0.00,WeatherDisplay:10.37,2013-06-29 19:14:00,
2013-06-29 15:19:00,81.8,65.6,29.58,SSE,158,9.2,9.2,58,0.00,CLR,,0.00,WeatherDisplay:10.37,2013-06-29 19:19:00,
2013-06-29 15:24:00,81.7,65.5,29.58,SW,217,6.8,6.8,58,0.00,CLR,,0.00,WeatherDisplay:10.37,2013-06-29 19:24:00,
2013-06-29 15:29:00,81.7,64.5,29.58,SE,134,3.5,3.5,56,0.00,CLR,,0.00,WeatherDisplay:10.37,2013-06-29 19:29:00,
2013-06-29 15:34:00,81.6,64.9,29.58,West,274,6.9,6.9,57,0.00,CLR,,0.00,WeatherDisplay:10.37,2013-06-29 19:34:00,
2013-06-29 15:40:00,81.7,64.0,29.58,WNW,288,12.7,12.7,55,0.00,CLR,,0.00,WeatherDisplay:10.37,2013-06-29 19:40:00,
2013-06-29 15:45:00,82.1,63.8,29.58,West,270,9.2,9.2,54,0.00,CLR,,0.00,WeatherDisplay:10.37,2013-06-29 19:45:00,
2013-06-29 15:50:00,82.5,65.8,29.58,NW,308,8.1,8.1,57,0.00,CLR,,0.00,WeatherDisplay:10.37,2013-06-29 19:50:00,
2013-06-29 15:55:00,82.4,63.6,29.59,WSW,256,12.7,12.7,53,0.00,CLR,,0.00,WeatherDisplay:10.37,2013-06-29 19:55:00,
2013-06-29 16:00:00,81.9,62.6,29.59,SW,216,11.5,11.5,52,0.00,CLR,,0.00,WeatherDisplay:10.37,2013-06-29 20:00:00,
2013-06-29 16:05:00,82.1,66.4,29.59,West,270,3.5,3.5,59,0.00,CLR,,0.00,WeatherDisplay:10.37,2013-06-29 20:05:00,
2013-06-29 16:10:00,81.4,62.1,29.59,SW,234,10.4,10.4,52,0.00,CLR,,0.00,WeatherDisplay:10.37,2013-06-29 20:10:00,
2013-06-29 16:15:00,80.9,63.8,29.59,West,263,6.9,6.9,56,0.00,CLR,,0.00,WeatherDisplay:10.37,2013-06-29 20:15:00,
2013-06-29 16:20:00,80.9,63.8,29.59,West,264,9.2,9.2,56,0.00,CLR,,0.00,WeatherDisplay:10.37,2013-06-29 20:20:00,
2013-06-29 16:25:00,81.6,63.4,29.59,East,92,4.6,4.6,54,0.00,CLR,,0.00,WeatherDisplay:10.37,2013-06-29 20:25:00,
2013-06-29 16:30:00,81.6,65.4,29.59,SSE,155,6.9,6.9,58,0.00,CLR,,0.00,WeatherDisplay:10.37,2013-06-29 20:30:00,
2013-06-29 16:35:00,81.5,66.8,29.59,WSW,254,0.0,0.2,61,0.00,CLR,,0.00,WeatherDisplay:10.37,2013-06-29 20:35:00,
2013-06-29 16:40:00,81.3,65.6,29.59,WNW,282,3.5,3.9,59,0.00,CLR,,0.00,WeatherDisplay:10.37,2013-06-29 20:40:00,
2013-06-29 16:45:00,80.8,65.2,29.60,WSW,254,9.2,9.2,59,0.00,CLR,,0.00,WeatherDisplay:10.37,2013-06-29 20:45:00,
2013-06-29 16:50:00,80.6,66.4,29.60,WSW,256,5.8,5.8,62,0.00,CLR,,0.00,WeatherDisplay:10.37,2013-06-29 20:50:00,
2013-06-29 16:55:00,79.7,66.9,29.60,SSE,158,8.1,8.1,65,0.00,CLR,,0.00,WeatherDisplay:10.37,2013-06-29 20:55:00,
2013-06-29 17:00:00,79.7,67.4,29.60,SE,124,2.3,2.3,66,0.00,CLR,,0.00,WeatherDisplay:10.37,2013-06-29 21:00:00,
2013-06-29 17:05:00,80.4,68.0,29.60,South,186,9.2,9.2,66,0.00,CLR,,0.00,WeatherDisplay:10.37,2013-06-29 21:05:00,
2013-06-29 17:10:00,80.2,67.8,29.60,South,176,11.5,11.5,66,0.00,CLR,,0.00,WeatherDisplay:10.37,2013-06-29 21:10:00,
2013-06-29 17:15:00,79.7,68.2,29.60,NE,40,2.9,2.9,68,0.00,CLR,,0.00,WeatherDisplay:10.37,2013-06-29 21:15:00,
2013-06-29 17:20:00,79.7,68.7,29.60,NNE,27,4.6,4.6,69,0.00,FEW,,0.00,WeatherDisplay:10.37,2013-06-29 21:20:00,
2013-06-29 17:25:00,79.5,68.5,29.60,SSW,192,9.2,9.2,69,0.00,FEW,,0.00,WeatherDisplay:10.37,2013-06-29 21:25:00,
2013-06-29 17:30:00,79.2,68.6,29.60,SSW,202,2.3,2.3,70,0.00,FEW,,0.00,WeatherDisplay:10.37,2013-06-29 21:30:00,
2013-06-29 17:35:00,78.9,69.1,29.60,SW,229,4.6,4.6,72,0.00,FEW,,0.00,WeatherDisplay:10.37,2013-06-29 21:35:00,
2013-06-29 17:40:00,78.4,68.7,29.61,SW,215,5.3,5.3,72,0.00,FEW,,0.00,WeatherDisplay:10.37,2013-06-29 21:40:00,
2013-06-29 17:45:00,78.2,68.9,29.61,SSW,200,8.1,8.1,73,0.00,FEW,,0.00,WeatherDisplay:10.37,2013-06-29 21:45:00,
2013-06-29 17:50:00,77.8,68.5,29.61,SSW,198,3.5,3.5,73,0.00,FEW,,0.00,WeatherDisplay:10.37,2013-06-29 21:50:00,
2013-06-29 17:55:00,77.7,68.4,29.61,SW,232,11.5,11.5,73,0.00,FEW,,0.00,WeatherDisplay:10.37,2013-06-29 21:55:00,
2013-06-29 18:00:00,77.7,68.8,29.61,SSW,199,9.2,9.2,74,0.00,FEW,,0.00,WeatherDisplay:10.37,2013-06-29 22:00:00,
2013-06-29 18:05:00,78.0,67.9,29.61,SE,124,5.8,5.8,71,0.00,FEW,,0.00,WeatherDisplay:10.37,2013-06-29 22:05:00,
2013-06-29 18:10:00,78.0,67.0,29.61,South,169,4.6,4.6,69,0.00,FEW,,0.00,WeatherDisplay:10.37,2013-06-29 22:10:00,
2013-06-29 18:15:00,78.4,67.8,29.61,SSE,168,3.5,3.5,70,0.00,FEW,,0.00,WeatherDisplay:10.37,2013-06-29 22:15:00,
2013-06-29 18:20:00,78.2,67.6,29.62,SSE,157,3.7,3.7,70,0.00,FEW,,0.00,WeatherDisplay:10.37,2013-06-29 22:20:00,
2013-06-29 18:25:00,78.7,68.9,29.62,SSE,164,4.4,4.4,72,0.00,FEW,,0.00,WeatherDisplay:10.37,2013-06-29 22:25:00,
2013-06-29 18:30:00,78.6,68.4,29.62,West,277,4.6,4.6,71,0.00,FEW,,0.00,WeatherDisplay:10.37,2013-06-29 22:30:00,
2013-06-29 18:35:00,78.5,68.3,29.62,NNE,31,2.3,2.3,71,0.00,FEW,,0.00,WeatherDisplay:10.37,2013-06-29 22:35:00,
2013-06-29 18:40:00,78.4,68.3,29.62,North,359,6.9,6.9,71,0.00,FEW,,0.00,WeatherDisplay:10.37,2013-06-29 22:40:00,
2013-06-29 18:45:00,78.4,68.7,29.62,NE,45,0.0,0.0,72,0.00,FEW,,0.00,WeatherDisplay:10.37,2013-06-29 22:45:00,
2013-06-29 18:50:00,78.2,68.5,29.62,SSW,203,4.7,4.7,72,0.00,FEW,,0.00,WeatherDisplay:10.37,2013-06-29 22:50:00,
2013-06-29 18:51:00,78.2,68.5,29.62,SSW,203,4.7,4.7,72,0.00,FEW,,0.00,WeatherDisplay:10.37,2013-06-29 22:51:00,
2013-06-29 18:56:00,77.8,68.5,29.63,SW,234,4.6,4.6,73,0.00,FEW,,0.00,WeatherDisplay:10.37,2013-06-29 22:56:00,
2013-06-29 19:01:00,77.8,68.5,29.63,South,176,4.6,4.6,73,0.00,FEW,,0.00,WeatherDisplay:10.37,2013-06-29 23:01:00,
2013-06-29 19:06:00,77.9,69.0,29.63,SSE,151,4.6,4.6,74,0.00,FEW,,0.00,WeatherDisplay:10.37,2013-06-29 23:06:00,
2013-06-29 19:11:00,77.8,68.5,29.63,South,189,3.5,3.5,73,0.00,FEW,,0.00,WeatherDisplay:10.37,2013-06-29 23:11:00,
2013-06-29 19:16:00,77.6,68.3,29.63,South,189,8.1,8.1,73,0.00,FEW,,0.00,WeatherDisplay:10.37,2013-06-29 23:16:00,
2013-06-29 19:21:00,77.5,68.6,29.63,WNW,292,8.1,8.1,74,0.00,FEW,,0.00,WeatherDisplay:10.37,2013-06-29 23:21:00,
2013-06-29 19:26:00,77.1,67.8,29.63,ESE,116,6.9,6.9,73,0.00,FEW,,0.00,WeatherDisplay:10.37,2013-06-29 23:26:00,
2013-06-29 19:31:00,77.1,68.2,29.63,SSE,167,4.6,4.6,74,0.00,FEW,,0.00,WeatherDisplay:10.37,2013-06-29 23:31:00,
2013-06-29 19:36:00,77.1,68.2,29.64,SSW,212,6.9,6.9,74,0.00,FEW,,0.00,WeatherDisplay:10.37,2013-06-29 23:36:00,
2013-06-29 19:41:00,77.0,68.1,29.64,SSW,196,4.6,4.6,74,0.00,FEW,,0.00,WeatherDisplay:10.37,2013-06-29 23:41:00,
2013-06-29 19:46:00,76.9,68.4,29.64,SW,215,4.6,4.6,75,0.00,FEW,,0.00,WeatherDisplay:10.37,2013-06-29 23:46:00,
2013-06-29 19:51:00,76.6,68.5,29.64,SSE,157,9.2,9.2,76,0.00,FEW,,0.00,WeatherDisplay:10.37,2013-06-29 23:51:00,
2013-06-29 19:56:00,76.5,68.4,29.64,SSW,193,4.6,4.6,76,0.00,FEW,,0.00,WeatherDisplay:10.37,2013-06-29 23:56:00,
2013-06-29 20:01:00,76.4,68.7,29.65,SSW,202,5.8,5.8,77,0.00,FEW,,0.00,WeatherDisplay:10.37,2013-06-30 00:01:00,
2013-06-29 20:06:00,76.2,68.1,29.65,West,271,8.1,8.1,76,0.00,FEW,,0.00,WeatherDisplay:10.37,2013-06-30 00:06:00,
2013-06-29 20:11:00,75.8,68.1,29.65,South,176,4.6,4.6,77,0.00,FEW,,0.00,WeatherDisplay:10.37,2013-06-30 00:11:00,
2013-06-29 20:16:00,75.5,67.8,29.65,SSE,152,4.6,4.6,77,0.00,FEW,,0.00,WeatherDisplay:10.37,2013-06-30 00:16:00,
2013-06-29 20:21:00,75.4,67.7,29.65,SSE,162,6.9,6.9,77,0.00,FEW,,0.00,WeatherDisplay:10.37,2013-06-30 00:21:00,
2013-06-29 20:26:00,75.3,67.6,29.66,SSW,200,3.5,3.5,77,0.00,FEW,,0.00,WeatherDisplay:10.37,2013-06-30 00:26:00,
2013-06-29 20:31:00,75.1,67.8,29.66,SE,127,1.2,1.2,78,0.00,FEW,,0.00,WeatherDisplay:10.37,2013-06-30 00:31:00,
2013-06-29 20:36:00,74.9,67.6,29.66,East,99,2.2,2.2,78,0.00,FEW,,0.00,WeatherDisplay:10.37,2013-06-30 00:36:00,
2013-06-29 20:42:00,74.7,67.8,29.66,SE,131,4.6,4.6,79,0.00,FEW,,0.00,WeatherDisplay:10.37,2013-06-30 00:42:00,
2013-06-29 20:47:00,74.4,67.5,29.67,WSW,251,4.6,4.6,79,0.00,FEW,,0.00,WeatherDisplay:10.37,2013-06-30 00:47:00,
2013-06-29 20:52:00,74.3,67.8,29.67,South,186,3.5,3.5,80,0.00,FEW,,0.00,WeatherDisplay:10.37,2013-06-30 00:52:00,
2013-06-29 20:57:00,74.0,67.8,29.67,SSW,199,2.3,2.3,81,0.00,FEW,,0.00,WeatherDisplay:10.37,2013-06-30 00:57:00,
2013-06-29 21:02:00,74.0,67.8,29.67,SW,224,3.5,3.5,81,0.00,FEW,,0.00,WeatherDisplay:10.37,2013-06-30 01:02:00,
2013-06-29 21:07:00,73.6,67.4,29.67,SW,234,3.5,3.5,81,0.00,FEW,,0.00,WeatherDisplay:10.37,2013-06-30 01:07:00,
2013-06-29 21:12:00,73.7,67.9,29.67,SW,217,4.6,4.6,82,0.00,FEW,,0.00,WeatherDisplay:10.37,2013-06-30 01:12:00,
2013-06-29 21:17:00,73.5,67.7,29.67,SW,223,3.5,3.5,82,0.00,FEW,,0.00,WeatherDisplay:10.37,2013-06-30 01:17:00,
2013-06-29 21:22:00,73.3,67.9,29.67,SE,144,0.0,0.0,83,0.00,FEW,,0.00,WeatherDisplay:10.37,2013-06-30 01:22:00,
2013-06-29 21:27:00,73.1,67.7,29.67,SE,144,0.0,0.0,83,0.00,FEW,,0.00,WeatherDisplay:10.37,2013-06-30 01:27:00,
2013-06-29 21:32:00,73.1,67.7,29.68,SE,144,0.0,0.0,83,0.00,FEW,,0.00,WeatherDisplay:10.37,2013-06-30 01:32:00,
2013-06-29 21:37:00,72.8,67.7,29.68,WSW,248,2.3,2.3,84,0.00,FEW,,0.00,WeatherDisplay:10.37,2013-06-30 01:37:00,
2013-06-29 21:42:00,72.8,67.7,29.68,WNW,299,0.0,0.2,84,0.00,FEW,,0.00,WeatherDisplay:10.37,2013-06-30 01:42:00,
2013-06-29 21:47:00,72.4,67.3,29.68,WSW,247,0.0,0.0,84,0.00,FEW,,0.00,WeatherDisplay:10.37,2013-06-30 01:47:00,
2013-06-29 21:52:00,72.6,67.9,29.69,NNW,329,2.3,2.3,85,0.00,FEW,,0.00,WeatherDisplay:10.37,2013-06-30 01:52:00,
2013-06-29 21:57:00,72.4,67.7,29.69,NNW,329,0.0,0.1,85,0.00,FEW,,0.00,WeatherDisplay:10.37,2013-06-30 01:57:00,
2013-06-29 22:02:00,72.3,67.6,29.69,ENE,76,1.2,1.2,85,0.00,FEW,,0.00,WeatherDisplay:10.37,2013-06-30 02:02:00,
2013-06-29 22:07:00,72.2,67.8,29.69,East,85,0.8,0.8,86,0.00,FEW,,0.00,WeatherDisplay:10.37,2013-06-30 02:07:00,
2013-06-29 22:12:00,72.0,67.6,29.69,ENE,68,0.0,0.1,86,0.00,FEW,,0.00,WeatherDisplay:10.37,2013-06-30 02:12:00,
2013-06-29 22:17:00,71.7,67.3,29.69,ENE,68,0.0,0.0,86,0.00,FEW,,0.00,WeatherDisplay:10.37,2013-06-30 02:17:00,
2013-06-29 22:22:00,71.5,67.5,29.69,ENE,68,0.0,0.0,87,0.00,FEW,,0.00,WeatherDisplay:10.37,2013-06-30 02:22:00,
2013-06-29 22:27:00,71.5,67.5,29.69,NNE,32,1.2,1.2,87,0.00,FEW,,0.00,WeatherDisplay:10.37,2013-06-30 02:27:00,
2013-06-29 22:32:00,71.4,67.7,29.69,NE,37,0.0,0.0,88,0.00,FEW,,0.00,WeatherDisplay:10.37,2013-06-30 02:32:00,
2013-06-29 22:37:00,71.2,67.5,29.69,NNE,16,0.0,0.0,88,0.00,FEW,,0.00,WeatherDisplay:10.37,2013-06-30 02:37:00,
2013-06-29 22:42:00,71.1,67.4,29.69,NNE,16,0.0,0.0,88,0.00,FEW,,0.00,WeatherDisplay:10.37,2013-06-30 02:42:00,
2013-06-29 22:47:00,71.1,67.4,29.69,NNE,16,0.0,0.0,88,0.00,FEW,,0.00,WeatherDisplay:10.37,2013-06-30 02:47:00,
2013-06-29 22:52:00,70.8,67.4,29.70,NNE,16,0.0,0.0,89,0.00,FEW,,0.00,WeatherDisplay:10.37,2013-06-30 02:52:00,
2013-06-29 22:57:00,70.4,67.0,29.70,NNE,16,0.0,0.0,89,0.00,FEW,,0.00,WeatherDisplay:10.37,2013-06-30 02:57:00,
2013-06-29 23:02:00,70.4,67.4,29.70,NNE,16,0.0,0.0,90,0.00,FEW,,0.00,WeatherDisplay:10.37,2013-06-30 03:02:00,
2013-06-29 23:07:00,70.5,67.5,29.70,NE,52,0.0,0.1,90,0.00,FEW,,0.00,WeatherDisplay:10.37,2013-06-30 03:07:00,
2013-06-29 23:12:00,70.4,67.4,29.70,NE,52,0.0,0.0,90,0.00,FEW,,0.00,WeatherDisplay:10.37,2013-06-30 03:12:00,
2013-06-29 23:17:00,70.3,67.3,29.70,NE,52,0.0,0.0,90,0.00,FEW,,0.00,WeatherDisplay:10.37,2013-06-30 03:17:00,
2013-06-29 23:22:00,70.1,67.1,29.70,NE,52,0.0,0.0,90,0.00,FEW,,0.00,WeatherDisplay:10.37,2013-06-30 03:22:00,
2013-06-29 23:27:00,70.3,67.3,29.71,NE,52,0.0,0.0,90,0.00,FEW,,0.00,WeatherDisplay:10.37,2013-06-30 03:27:00,
2013-06-29 23:32:00,70.1,67.4,29.71,NE,52,0.0,0.0,91,0.00,FEW,,0.00,WeatherDisplay:10.37,2013-06-30 03:32:00,
2013-06-29 23:37:00,70.3,67.6,29.71,NE,52,0.0,0.0,91,0.00,FEW,,0.00,WeatherDisplay:10.37,2013-06-30 03:37:00,
2013-06-29 23:42:00,70.0,67.3,29.71,ESE,104,0.0,0.0,91,0.00,FEW,,0.00,WeatherDisplay:10.37,2013-06-30 03:42:00,
2013-06-29 23:47:00,69.9,67.2,29.71,ESE,104,0.0,0.0,91,0.00,FEW,,0.00,WeatherDisplay:10.37,2013-06-30 03:47:00,
2013-06-29 23:52:00,69.9,67.2,29.71,ESE,104,0.0,0.0,91,0.00,FEW,,0.00,WeatherDisplay:10.37,2013-06-30 03:52:00,
2013-06-29 23:57:00,70.1,67.7,29.71,ESE,104,0.0,0.0,92,0.00,FEW,,0.00,WeatherDisplay:10.37,2013-06-30 03:57:00,